Location: New York
(40.7127°N, 74.0060°W)
Time: 18:25:18
(UTC-04:00)

VELOX 1 - Pass Details

Date: 01 May 2024
Orbit: 605 x 617 km, 98.3° (Epoch: 27 May)

Event Time Altitude Azimuth Distance (km) Brightness Sun altitude
Rises 21:37:58 0° 3° (N) 2,901 ? -17.9°
Reaches altitude 10° 21:40:18 10° 355° (N) 1,990 ? -18.2°
Maximum altitude 21:44:13 35° 290° (WNW) 1,012 ? -18.8°
Drops below altitude 10° 21:48:06 10° 225° (SW) 1,973 ? -19.3°
Sets 21:50:24 0° 216° (SW) 2,872 ? -19.7°
